AirNav   Air Wisconsin Up To $57,000 Bonus
 
 738 users online  

F30 Sulphur Municipal Airport
Sulphur, Oklahoma, USA

GOING TO SULPHUR?


FAA INFORMATION EFFECTIVE 05 DECEMBER 2019

Location

FAA Identifier: F30
Lat/Long: 34-31-37.3600N 096-59-24.6750W
34-31.622667N 096-59.411250W
34.5270444,-96.9901875
(estimated)
Elevation: 1071 ft. / 326 m (estimated)
Variation: 07E (1985)
From city: 2 miles NW of SULPHUR, OK
Time zone: UTC -6 (UTC -5 during Daylight Saving Time)
Zip code: 73086

Airport Operations

Airport use: Open to the public
Activation date: 11/1946
Control tower: no
ARTCC: FORT WORTH CENTER
FSS: MC ALESTER FLIGHT SERVICE STATION
NOTAMs facility: MLC (NOTAM-D service available)
Attendance: UNATNDD
Wind indicator: lighted
Segmented circle: yes
Lights: ACTVT MIRL RY 17/35 - CTAF.
Beacon: white-green (lighted land airport)
Operates sunset to sunrise.

Airport Communications

CTAF: 122.9
WX AWOS-3 at ADM (13 nm S): 125.6 (580-389-5078)
WX AWOS-3 at PVJ (16 nm NW): 118.675 (405-238-4452)

Nearby radio navigation aids

VOR radial/distance  VOR name  Freq  Var
ADMr019/20.9ARDMORE VORTAC116.7006E
ADHr218/22.9ADA VOR/DME117.8006E

 
NDB name  Hdg/Dist  Freq  Var  ID
MULDROW153/32.451206EHMY .... -- -.--

Airport Services

Parking: tiedowns
Airframe service: NONE
Powerplant service: NONE
Bottled oxygen: NONE
Bulk oxygen: NONE

Runway Information

Runway 17/35

Dimensions: 3500 x 60 ft. / 1067 x 18 m
Surface: asphalt, in excellent condition
Weight bearing capacity: 
Single wheel: 12.5
Runway edge lights: medium intensity
RUNWAY 17  RUNWAY 35
Latitude: 34-31.911167N34-31.334167N
Longitude: 096-59.411667W096-59.410833W
Elevation: 1071.0 ft.1031.0 ft.
Traffic pattern: rightleft
Markings: basic, in good conditionbasic, in good condition
Obstructions: 27 ft. trees, 625 ft. from runway, 15:1 slope to clearnone

Airport Ownership and Management from official FAA records

Ownership: Publicly-owned
Owner: CITY OF SULPHUR
CITY HALL 600 W. BROADWAY
SULPHUR, OK 73086
Phone 580-622-5096
Manager: ANDY FREEMAN
CITY HALL 600 W. BROADWAY
SULPHUR, OK 73086
Phone 580-622-5096
CITY MANAGER.

Airport Operational Statistics

Aircraft based on the field: 7
Single engine airplanes: 7
    
Aircraft operations: avg 32/week *
79% local general aviation
21% transient general aviation
* for 12-month period ending 15 February 2018

Additional Remarks

FOR CD CTC FORT WORTH ARTCC AT 817-858-7584.

Instrument Procedures

There are no published instrument procedures at F30.

Some nearby airports with instrument procedures:

KADM - Ardmore Municipal Airport (13 nm S)
KPVJ - Pauls Valley Municipal Airport (16 nm NW)
KADH - Ada Regional Airport (23 nm NE)
1F0 - Ardmore Downtown Executive Airport (24 nm S)
1F4 - Madill Municipal Airport (25 nm S)
 
Loc | Ops | Rwys | IFR | FBO | Links
Com | Nav | Svcs | Stats | Notes
Area around F30 (Sulphur Municipal Airport)
 
Road maps at: MapQuest Bing Google
 
Aerial photo
WARNING: Photo may not be current or correct
Aerial photo of F30 (Sulphur Municipal Airport)
Do you have a better or more recent aerial photo of Sulphur Municipal Airport that you would like to share? If so, please send us your photo.

 
Sectional chart

 
Airport distance calculator
Flying to Sulphur Municipal Airport? Find the distance to fly.

From to F30

Sunrise and sunset
Times for 07-Dec-2019
 Local
(UTC-6)
 Zulu
(UTC)
Morning civil twilight06:5512:55
Sunrise07:2313:23
Sunset17:1623:16
Evening civil twilight17:4423:44

Current date and time
Zulu (UTC)  07-Dec-2019 07:18:54
Local (UTC-6)  07-Dec-2019 01:18:54
 
METAR
KADM 
15nm S 
070655Z AUTO 00000KT 10SM SCT110 03/01 A3034 RMK AO2 T00270007
KADH 
23nm NE 
070655Z AUTO 00000KT 10SM CLR 03/00 A3035 RMK AO2
K1F0 
23nm S 
070655Z AUTO 00000KT 10SM CLR 05/00 A3032 RMK AO2
TAF
KOUN 
47nm NW 
070520Z 0706/0806 02005KT P6SM SCT250 FM071600 16009KT P6SM BKN250
NOTAMs
Click for the latest NOTAMs
NOTAMs are issued by the DoD/FAA and will open in a separate window not controlled by AirNav.

 

 
 

Would you like to see your business listed on this page?

 If your business provides an interesting product or service to pilots, flight crews, aircraft, or users of the Sulphur Municipal Airport, you should consider listing it here.  To start the listing process, click on the button below
 
Add a business
 

Other Pages about Sulphur Municipal Airport

Update a link
 
Copyright © AirNav, LLC. All rights reserved. Privacy Policy  Contact